Flag for U.S.A. Weather past 2 weeks in Youngstown, Ohio, U.S.A.

Now
1 °F

Passing clouds.


Feels Like: 1 °F
Forecast: -3 / 22 °F
Wind: No wind

Location: Youngstown-Warren Regional Airport

Current Time: Feb 28, 2015 at 12:25:11 AM

Latest Report: Feb 27, 2015 at 11:51 PM


Visibility: 10 mi

Pressure: 30.72 "Hg

Humidity: 79%

Dew point: -4 °F

Location of YoungstownLocation

Historic Weather in Youngstown — Graph

°F

Youngstown temperature yesterday

Maximum temperature yesterday: 15 °F (at 2:51 PM)
Minimum temperature yesterday: -3 °F (at 6:51 AM)
Average temperature yesterday: 6 °F

Past Weeks' High & Low Weather Summary

 TemperatureHumidityPressure
High30 °F (Feb 22, 2:51 PM)96% (Feb 22, 5:51 AM)30.73 "Hg (Feb 22, 5:51 AM)
Low-14 °F (Feb 20, 7:51 AM)31% (Feb 24, 3:51 PM)29.48 "Hg (Feb 14, 12:58 PM)
Average9 °F68%30.16 "Hg
* Reported Feb 12 10:51 PM — Feb 27 10:51 PM, Youngstown, Weather by CustomWeather, © 2015

Note: Actual official high and low records may vary slightly from our data, if they occured in-between our weather recording intervals... More about our weather records

Advertising

Youngstown weather history for previous 24 hours

 ConditionsComfort  
Time TempWeatherWind HumidityBarometerVisibility
10:51 PM
Fri, Feb 27
2 °FPassing clouds.No wind72%30.73 "Hg10 mi
9:51 PM3 °FPassing clouds.No wind69%30.71 "Hg10 mi
8:51 PM6 °FClear.No wind63%30.68 "Hg10 mi
7:51 PM8 °FPassing clouds.No wind57%30.66 "Hg10 mi
6:51 PM11 °FPassing clouds.No wind53%30.64 "Hg10 mi
5:51 PM13 °FScattered clouds.7 mph49%30.63 "Hg10 mi
4:51 PM13 °FPartly sunny.9 mph51%30.62 "Hg10 mi
3:51 PM13 °FPartly sunny.6 mph51%30.60 "Hg10 mi
2:51 PM15 °FPartly sunny.5 mph49%30.60 "Hg10 mi
1:51 PM14 °FPartly sunny.8 mph51%30.59 "Hg10 mi
12:51 PM10 °FScattered clouds.5 mph53%30.59 "Hg10 mi
11:51 AM11 °FPassing clouds.3 mph56%30.58 "Hg10 mi
10:51 AM8 °FPassing clouds.6 mph63%30.57 "Hg10 mi
9:51 AM6 °FPassing clouds.No wind83%30.55 "Hg10 mi
8:51 AM0 °FSunny.6 mph83%30.54 "Hg10 mi
7:51 AM-3 °FSunny.5 mph78%30.51 "Hg10 mi
6:51 AM-3 °FClear.3 mph82%30.47 "Hg10 mi
5:51 AM-2 °FPassing clouds.5 mph83%30.45 "Hg10 mi
4:51 AM-1 °FPassing clouds.5 mph86%30.41 "Hg10 mi
3:51 AM0 °FClear.5 mph83%30.37 "Hg10 mi
2:51 AM1 °FClear.6 mph87%30.36 "Hg10 mi
1:51 AM2 °FLight snow. Passing clouds.5 mph88%30.35 "Hg7 mi
12:51 AM4 °FPassing clouds.5 mph84%30.33 "Hg9 mi
Weather by CustomWeather, © 2015

See weather overviewHow to use our weather pages